LOT2306 ENGM-EPGD

Flight info

Callsign LOT2306
Flight time 1h 22m
Altitude 31000
Route OKSAT L996 GETPA/N0457F350 L727 NEGIL DCT PENOR DCT MOTAD N133 DOMAG T240 OGDAV
Aircraft B738/M-SDE2E3FGHIRWXY/LB1

Departure

Time 2026-05-05 19:39
Airport Oslo-Gardermoen International Airport (ENGM)

Arrival

Time 2026-05-05 21:02
Airport Gdańsk Lech Wałęsa Airport (EPGD)
Time Latitude Longitude Altitude Speed Heading
2026-05-05 18:56 60.19545 11.09579 680 ft 0 kts 196°
2026-05-05 19:20 60.19556 11.09585 679 ft 4 kts 196°
2026-05-05 19:20 60.19582 11.09600 677 ft 4 kts 196°
2026-05-05 19:21 60.19607 11.09615 675 ft 4 kts 196°
2026-05-05 19:21 60.19633 11.09630 679 ft 4 kts 204°
2026-05-05 19:21 60.19647 11.09649 677 ft 3 kts 284°
2026-05-05 19:21 60.19644 11.09695 678 ft 4 kts 252°
2026-05-05 19:22 60.19650 11.09734 675 ft 0 kts 258°
2026-05-05 19:31 60.19647 11.09698 679 ft 5 kts 261°
2026-05-05 19:31 60.19654 11.09594 677 ft 9 kts 285°
2026-05-05 19:31 60.19671 11.09477 678 ft 9 kts 285°
2026-05-05 19:31 60.19686 11.09367 681 ft 7 kts 285°
2026-05-05 19:32 60.19698 11.09282 655 ft 6 kts 286°
2026-05-05 19:32 60.19711 11.09191 679 ft 8 kts 286°
2026-05-05 19:32 60.19733 11.09039 678 ft 14 kts 286°
2026-05-05 19:32 60.19765 11.08804 676 ft 16 kts 288°
2026-05-05 19:33 60.19722 11.08642 677 ft 17 kts 194°
2026-05-05 19:33 60.19604 11.08575 677 ft 19 kts 196°
2026-05-05 19:33 60.19495 11.08512 679 ft 16 kts 196°
2026-05-05 19:33 60.19401 11.08456 679 ft 12 kts 196°
2026-05-05 19:34 60.19304 11.08406 679 ft 13 kts 196°
2026-05-05 19:34 60.19227 11.08355 676 ft 10 kts 196°
2026-05-05 19:34 60.19115 11.08298 678 ft 22 kts 193°
2026-05-05 19:35 60.18929 11.08188 672 ft 17 kts 201°
2026-05-05 19:35 60.18766 11.08091 668 ft 31 kts 196°
2026-05-05 19:35 60.18560 11.07967 666 ft 29 kts 206°
2026-05-05 19:35 60.18551 11.07764 663 ft 18 kts 292°
2026-05-05 19:36 60.18575 11.07622 663 ft 0 kts 287°
2026-05-05 19:36 60.18580 11.07588 664 ft 9 kts 287°
2026-05-05 19:36 60.18651 11.07457 663 ft 15 kts 356°
2026-05-05 19:36 60.18750 11.07518 664 ft 1 kts 15°
2026-05-05 19:37 60.18755 11.07521 664 ft 0 kts 15°
2026-05-05 19:37 60.18765 11.07526 664 ft 2 kts 15°
2026-05-05 19:37 60.18819 11.07556 663 ft 13 kts 15°
2026-05-05 19:37 60.18854 11.07575 666 ft 0 kts 15°
2026-05-05 19:38 60.18855 11.07575 666 ft 0 kts 15°
2026-05-05 19:38 60.18857 11.07576 666 ft 0 kts 15°
2026-05-05 19:38 60.18857 11.07577 666 ft 2 kts 15°
2026-05-05 19:38 60.18888 11.07595 667 ft 2 kts 16°
2026-05-05 19:39 60.19063 11.07692 670 ft 61 kts 15°
2026-05-05 19:39 60.19702 11.08059 671 ft 128 kts 16°
2026-05-05 19:39 60.20739 11.08630 750 ft 175 kts 17°
2026-05-05 19:39 60.21957 11.09461 1299 ft 195 kts 17°
2026-05-05 19:40 60.23301 11.10380 1879 ft 208 kts 15°
2026-05-05 19:40 60.24679 11.11164 2666 ft 204 kts 12°
2026-05-05 19:40 60.26099 11.11601 3217 ft 214 kts 355°
2026-05-05 19:40 60.27654 11.11102 3483 ft 236 kts 346°
2026-05-05 19:41 60.29092 11.10540 3861 ft 252 kts 351°
2026-05-05 19:41 60.30754 11.10723 4298 ft 274 kts 15°
2026-05-05 19:41 60.32302 11.12874 5091 ft 284 kts 51°
2026-05-05 19:41 60.33131 11.16593 5657 ft 306 kts 78°
2026-05-05 19:42 60.33110 11.21174 5115 ft 358 kts 104°
2026-05-05 19:42 60.32072 11.25702 6380 ft 347 kts 126°
2026-05-05 19:42 60.30394 11.29041 7656 ft 335 kts 149°
2026-05-05 19:42 60.28324 11.30932 9026 ft 320 kts 161°
2026-05-05 19:43 60.26267 11.32399 10343 ft 308 kts 163°
2026-05-05 19:43 60.24216 11.33792 11036 ft 319 kts 164°
2026-05-05 19:43 60.22061 11.35236 11225 ft 342 kts 164°
2026-05-05 19:43 60.19741 11.36800 11781 ft 352 kts 163°
2026-05-05 19:44 60.17429 11.38376 12501 ft 357 kts 163°
2026-05-05 19:44 60.15836 11.39470 13015 ft 360 kts 163°
2026-05-05 19:44 60.12671 11.41653 13934 ft 367 kts 164°
2026-05-05 19:44 60.11035 11.42784 14348 ft 371 kts 164°
2026-05-05 19:45 60.07775 11.45038 15203 ft 377 kts 165°
2026-05-05 19:45 60.06089 11.46204 15635 ft 380 kts 166°
2026-05-05 19:45 60.03598 11.47924 16257 ft 385 kts 167°
2026-05-05 19:45 60.01044 11.49684 16872 ft 391 kts 167°
2026-05-05 19:46 59.98456 11.51466 17484 ft 396 kts 168°
2026-05-05 19:46 59.95839 11.53264 18103 ft 401 kts 169°
2026-05-05 19:46 59.93187 11.55084 18640 ft 405 kts 169°
2026-05-05 19:46 59.90506 11.56922 19189 ft 408 kts 170°
2026-05-05 19:47 59.87807 11.58770 19731 ft 412 kts 170°
2026-05-05 19:47 59.85082 11.60632 20268 ft 416 kts 171°
2026-05-05 19:47 59.82332 11.62508 20780 ft 419 kts 171°
2026-05-05 19:47 59.79902 11.64163 21237 ft 422 kts 171°
2026-05-05 19:48 59.77117 11.66056 21763 ft 425 kts 172°
2026-05-05 19:48 59.74309 11.67963 22291 ft 428 kts 172°
2026-05-05 19:48 59.71476 11.69883 22810 ft 431 kts 172°
2026-05-05 19:48 59.68628 11.71810 23321 ft 434 kts 172°
2026-05-05 19:49 59.65793 11.73724 23750 ft 437 kts 172°
2026-05-05 19:49 59.62921 11.75741 24157 ft 444 kts 167°
2026-05-05 19:49 59.60128 11.78557 24544 ft 459 kts 158°
2026-05-05 19:49 59.56750 11.83502 25049 ft 471 kts 150°
2026-05-05 19:50 59.54182 11.87570 25465 ft 473 kts 150°
2026-05-05 19:50 59.51614 11.91638 25862 ft 475 kts 150°
2026-05-05 19:50 59.49904 11.94332 26100 ft 476 kts 150°
2026-05-05 19:50 59.47309 11.98397 26483 ft 478 kts 150°
2026-05-05 19:51 59.44695 12.02462 26852 ft 480 kts 150°
2026-05-05 19:51 59.42066 12.06524 27217 ft 481 kts 150°
2026-05-05 19:51 59.39433 12.10576 27571 ft 483 kts 150°
2026-05-05 19:51 59.36776 12.14650 27900 ft 485 kts 151°
2026-05-05 19:52 59.33238 12.20060 28336 ft 488 kts 151°
2026-05-05 19:52 59.31428 12.22823 28559 ft 489 kts 151°
2026-05-05 19:52 59.28735 12.26926 28871 ft 491 kts 151°
2026-05-05 19:52 59.26037 12.31030 29187 ft 493 kts 151°
2026-05-05 19:53 59.23324 12.35149 29470 ft 495 kts 150°
2026-05-05 19:53 59.20591 12.39290 29768 ft 497 kts 150°
2026-05-05 19:53 59.17892 12.43374 30084 ft 497 kts 150°
2026-05-05 19:53 59.15165 12.47494 30454 ft 496 kts 150°
2026-05-05 19:54 59.12435 12.51612 30849 ft 493 kts 150°
2026-05-05 19:54 59.09724 12.55692 31197 ft 492 kts 150°
2026-05-05 19:54 59.07018 12.59752 31509 ft 492 kts 150°
2026-05-05 19:54 59.04311 12.63804 31836 ft 491 kts 150°
2026-05-05 19:55 59.01606 12.67843 32183 ft 489 kts 150°
2026-05-05 19:55 58.98916 12.71854 32534 ft 488 kts 150°
2026-05-05 19:55 58.96235 12.75847 33090 ft 481 kts 150°
2026-05-05 19:55 58.93600 12.79768 33708 ft 473 kts 150°
2026-05-05 19:56 58.91008 12.83619 34211 ft 467 kts 150°
2026-05-05 19:56 58.88438 12.87421 34550 ft 464 kts 150°
2026-05-05 19:56 58.85867 12.91210 34749 ft 465 kts 150°
2026-05-05 19:56 58.83283 12.95004 34906 ft 467 kts 150°
2026-05-05 19:57 58.80695 12.98800 34922 ft 468 kts 150°
2026-05-05 19:57 58.75472 13.06440 34940 ft 476 kts 150°
2026-05-05 19:58 58.70137 13.14218 34946 ft 486 kts 150°
2026-05-05 19:58 58.64718 13.22105 34938 ft 490 kts 150°
2026-05-05 19:59 58.59351 13.29902 34918 ft 481 kts 150°
2026-05-05 19:59 58.54034 13.37588 34929 ft 479 kts 150°
2026-05-05 20:00 58.48712 13.45233 34936 ft 478 kts 150°
2026-05-05 20:00 58.43381 13.52861 34939 ft 478 kts 150°
2026-05-05 20:01 58.38053 13.60458 34942 ft 478 kts 151°
2026-05-05 20:01 58.32716 13.68041 34940 ft 479 kts 151°
2026-05-05 20:02 58.27359 13.75622 34977 ft 482 kts 151°
2026-05-05 20:02 58.24670 13.79414 35158 ft 482 kts 151°
2026-05-05 20:02 58.21979 13.83206 35414 ft 480 kts 151°
2026-05-05 20:02 58.19302 13.86975 35691 ft 478 kts 150°
2026-05-05 20:03 58.16661 13.90684 35939 ft 477 kts 150°
2026-05-05 20:03 58.13998 13.94415 36154 ft 477 kts 150°
2026-05-05 20:03 58.11328 13.98147 36333 ft 477 kts 150°
2026-05-05 20:03 58.08660 14.01867 36533 ft 477 kts 150°
2026-05-05 20:04 58.05993 14.05580 36756 ft 476 kts 150°
2026-05-05 20:04 58.03333 14.09277 36945 ft 476 kts 150°
2026-05-05 20:04 58.00658 14.12985 36925 ft 479 kts 150°
2026-05-05 20:05 57.95295 14.20405 36928 ft 476 kts 150°
2026-05-05 20:05 57.89977 14.27740 36932 ft 472 kts 150°
2026-05-05 20:06 57.84686 14.35007 36937 ft 469 kts 150°
2026-05-05 20:06 57.79421 14.42208 36935 ft 467 kts 150°
2026-05-05 20:07 57.74167 14.49365 36941 ft 466 kts 150°
2026-05-05 20:07 57.68945 14.56452 36943 ft 467 kts 150°
2026-05-05 20:08 57.63679 14.63575 36945 ft 468 kts 150°
2026-05-05 20:08 57.58384 14.70711 36951 ft 470 kts 150°
2026-05-05 20:09 57.53063 14.77856 36945 ft 472 kts 150°
2026-05-05 20:09 57.47717 14.85010 36936 ft 474 kts 150°
2026-05-05 20:10 57.42354 14.92161 36937 ft 475 kts 150°
2026-05-05 20:10 57.36971 14.99313 36937 ft 476 kts 150°
2026-05-05 20:11 57.31585 15.06441 36937 ft 475 kts 150°
2026-05-05 20:11 57.26201 15.13542 36930 ft 475 kts 150°
2026-05-05 20:12 57.20826 15.20604 36928 ft 474 kts 151°
2026-05-05 20:12 57.15496 15.27581 36928 ft 473 kts 151°
2026-05-05 20:13 57.10135 15.34574 36922 ft 471 kts 151°
2026-05-05 20:13 57.04792 15.41517 36920 ft 470 kts 151°
2026-05-05 20:14 56.99455 15.48428 36923 ft 468 kts 151°
2026-05-05 20:14 56.94134 15.55292 36917 ft 468 kts 151°
2026-05-05 20:15 56.88806 15.62143 36918 ft 467 kts 151°
2026-05-05 20:15 56.83486 15.68957 36920 ft 467 kts 151°
2026-05-05 20:16 56.78156 15.75761 36925 ft 467 kts 151°
2026-05-05 20:16 56.72858 15.82499 36914 ft 467 kts 151°
2026-05-05 20:17 56.67522 15.89264 36916 ft 467 kts 151°
2026-05-05 20:17 56.62178 15.96014 36914 ft 468 kts 151°
2026-05-05 20:18 56.56832 16.02744 36914 ft 468 kts 151°
2026-05-05 20:18 56.51475 16.09463 36911 ft 468 kts 151°
2026-05-05 20:19 56.46111 16.16169 36909 ft 468 kts 151°
2026-05-05 20:19 56.40748 16.22848 36910 ft 468 kts 151°
2026-05-05 20:20 56.35379 16.29514 36908 ft 468 kts 151°
2026-05-05 20:20 56.30012 16.36152 36909 ft 468 kts 151°
2026-05-05 20:21 56.24639 16.42776 36913 ft 467 kts 151°
2026-05-05 20:21 56.19270 16.49371 36911 ft 467 kts 151°
2026-05-05 20:22 56.13906 16.55938 36909 ft 467 kts 151°
2026-05-05 20:22 56.08537 16.62489 36910 ft 466 kts 151°
2026-05-05 20:23 56.03213 16.68962 36915 ft 466 kts 151°
2026-05-05 20:23 55.97841 16.75470 36910 ft 465 kts 151°
2026-05-05 20:24 55.92483 16.81941 36910 ft 465 kts 151°
2026-05-05 20:24 55.87120 16.88396 36918 ft 465 kts 151°
2026-05-05 20:25 55.81763 16.94822 36920 ft 464 kts 151°
2026-05-05 20:25 55.79064 16.98049 36234 ft 469 kts 151°
2026-05-05 20:25 55.76372 17.01266 35596 ft 468 kts 152°
2026-05-05 20:25 55.73664 17.04495 34942 ft 469 kts 152°
2026-05-05 20:26 55.70958 17.07719 34376 ft 468 kts 152°
2026-05-05 20:26 55.68253 17.10937 33774 ft 467 kts 152°
2026-05-05 20:26 55.65551 17.14143 33147 ft 466 kts 152°
2026-05-05 20:26 55.62875 17.17064 32964 ft 449 kts 160°
2026-05-05 20:27 55.60108 17.19381 32931 ft 432 kts 163°
2026-05-05 20:27 55.57426 17.21522 32808 ft 415 kts 163°
2026-05-05 20:27 55.54830 17.23572 32440 ft 404 kts 164°
2026-05-05 20:27 55.52281 17.25582 31940 ft 400 kts 165°
2026-05-05 20:28 55.49731 17.27594 31178 ft 407 kts 165°
2026-05-05 20:28 55.47082 17.29679 29827 ft 429 kts 165°
2026-05-05 20:28 55.44301 17.31879 28678 ft 442 kts 163°
2026-05-05 20:28 55.41515 17.34119 28158 ft 438 kts 163°
2026-05-05 20:29 55.38757 17.36347 27633 ft 434 kts 163°
2026-05-05 20:29 55.36028 17.38547 27157 ft 429 kts 163°
2026-05-05 20:29 55.33321 17.40720 26674 ft 426 kts 163°
2026-05-05 20:29 55.30640 17.42861 26213 ft 422 kts 163°
2026-05-05 20:30 55.27979 17.44980 25731 ft 418 kts 163°
2026-05-05 20:30 55.25341 17.47077 25276 ft 415 kts 163°
2026-05-05 20:30 55.22723 17.49155 24821 ft 411 kts 163°
2026-05-05 20:30 55.20128 17.51209 24359 ft 408 kts 163°
2026-05-05 20:31 55.17538 17.53218 23918 ft 405 kts 163°
2026-05-05 20:31 55.14959 17.55192 23443 ft 403 kts 163°
2026-05-05 20:31 55.12395 17.57150 22917 ft 401 kts 163°
2026-05-05 20:31 55.09853 17.59093 22406 ft 397 kts 163°
2026-05-05 20:32 55.07344 17.61014 21693 ft 391 kts 163°
2026-05-05 20:32 55.04855 17.62916 20839 ft 390 kts 163°
2026-05-05 20:32 55.02369 17.64813 20065 ft 388 kts 162°
2026-05-05 20:32 54.99915 17.66687 19381 ft 383 kts 161°
2026-05-05 20:33 54.97601 17.68908 18689 ft 386 kts 151°
2026-05-05 20:33 54.95504 17.71845 17978 ft 389 kts 140°
2026-05-05 20:33 54.93632 17.75220 17279 ft 385 kts 137°
2026-05-05 20:33 54.91817 17.78605 16616 ft 380 kts 137°
2026-05-05 20:34 54.90031 17.81933 16035 ft 372 kts 137°
2026-05-05 20:34 54.88277 17.85170 15573 ft 363 kts 137°
2026-05-05 20:34 54.86559 17.88308 15241 ft 355 kts 137°
2026-05-05 20:34 54.84871 17.91372 15102 ft 346 kts 138°
2026-05-05 20:35 54.83227 17.94344 14942 ft 338 kts 138°
2026-05-05 20:35 54.81621 17.97243 14794 ft 329 kts 138°
2026-05-05 20:35 54.80045 18.00057 14628 ft 321 kts 141°
2026-05-05 20:35 54.78354 18.02500 14382 ft 313 kts 148°
2026-05-05 20:36 54.76599 18.04719 14081 ft 311 kts 149°
2026-05-05 20:36 54.74847 18.06897 13787 ft 310 kts 149°
2026-05-05 20:36 54.73131 18.09068 13451 ft 309 kts 148°
2026-05-05 20:36 54.71414 18.11279 13113 ft 307 kts 147°
2026-05-05 20:37 54.69686 18.13521 12785 ft 306 kts 147°
2026-05-05 20:37 54.68559 18.14986 12570 ft 305 kts 147°
2026-05-05 20:37 54.66406 18.18084 12155 ft 305 kts 138°
2026-05-05 20:37 54.64970 18.20769 11865 ft 304 kts 135°
2026-05-05 20:38 54.63587 18.23513 11554 ft 303 kts 134°
2026-05-05 20:38 54.62211 18.26250 11259 ft 301 kts 135°
2026-05-05 20:38 54.60832 18.28963 10951 ft 300 kts 135°
2026-05-05 20:38 54.59451 18.31649 10639 ft 299 kts 135°
2026-05-05 20:39 54.58070 18.34313 10335 ft 297 kts 135°
2026-05-05 20:39 54.56694 18.36953 10093 ft 293 kts 135°
2026-05-05 20:39 54.55796 18.38670 10018 ft 288 kts 135°
2026-05-05 20:39 54.54468 18.41205 9823 ft 283 kts 135°
2026-05-05 20:40 54.53151 18.43708 9526 ft 282 kts 135°
2026-05-05 20:40 54.51836 18.46204 9229 ft 280 kts 135°
2026-05-05 20:40 54.50530 18.48680 8943 ft 278 kts 135°
2026-05-05 20:40 54.49232 18.51139 8664 ft 277 kts 135°
2026-05-05 20:41 54.47942 18.53580 8383 ft 275 kts 135°
2026-05-05 20:41 54.46660 18.56006 8164 ft 271 kts 134°
2026-05-05 20:41 54.45409 18.58369 8049 ft 263 kts 134°
2026-05-05 20:41 54.44193 18.60662 7929 ft 256 kts 135°
2026-05-05 20:42 54.43011 18.62890 7813 ft 248 kts 134°
2026-05-05 20:42 54.42063 18.65343 7581 ft 248 kts 114°
2026-05-05 20:42 54.41424 18.68085 7362 ft 246 kts 113°
2026-05-05 20:42 54.40776 18.70786 7115 ft 245 kts 114°
2026-05-05 20:43 54.40115 18.73477 6866 ft 244 kts 114°
2026-05-05 20:43 54.39452 18.76145 6664 ft 241 kts 114°
2026-05-05 20:43 54.38796 18.78785 6450 ft 241 kts 114°
2026-05-05 20:43 54.38140 18.81409 6201 ft 237 kts 114°
2026-05-05 20:44 54.37487 18.84017 5973 ft 237 kts 114°
2026-05-05 20:44 54.36761 18.86531 5704 ft 236 kts 130°
2026-05-05 20:44 54.35494 18.88126 5465 ft 228 kts 164°
2026-05-05 20:44 54.33931 18.88314 5271 ft 230 kts 192°
2026-05-05 20:45 54.30973 18.86417 4768 ft 223 kts 205°
2026-05-05 20:45 54.29724 18.84964 4479 ft 216 kts 233°
2026-05-05 20:45 54.29153 18.82690 4254 ft 208 kts 265°
2026-05-05 20:46 54.29339 18.80209 4116 ft 220 kts 292°
2026-05-05 20:46 54.29947 18.77810 4014 ft 217 kts 295°
2026-05-05 20:46 54.30558 18.75463 3715 ft 214 kts 295°
2026-05-05 20:46 54.31156 18.73156 3433 ft 209 kts 295°
2026-05-05 20:47 54.31727 18.70891 3150 ft 206 kts 295°
2026-05-05 20:47 54.32288 18.68651 2867 ft 202 kts 295°
2026-05-05 20:47 54.32821 18.66509 2608 ft 188 kts 295°
2026-05-05 20:47 54.33314 18.64528 2362 ft 173 kts 295°
2026-05-05 20:48 54.33766 18.62709 2145 ft 163 kts 296°
2026-05-05 20:48 54.34204 18.60950 1957 ft 158 kts 296°
2026-05-05 20:48 54.34642 18.59195 1745 ft 161 kts 297°
2026-05-05 20:48 54.35080 18.57430 1509 ft 160 kts 296°
2026-05-05 20:49 54.35516 18.55693 1301 ft 157 kts 296°
2026-05-05 20:49 54.35917 18.53972 1096 ft 154 kts 294°
2026-05-05 20:49 54.36340 18.52276 886 ft 156 kts 296°
2026-05-05 20:49 54.36770 18.50568 690 ft 156 kts 295°
2026-05-05 20:50 54.37198 18.48864 527 ft 154 kts 295°
2026-05-05 20:50 54.37618 18.47170 582 ft 168 kts 294°
2026-05-05 20:50 54.38118 18.45141 1119 ft 207 kts 294°
2026-05-05 20:50 54.38709 18.42666 1699 ft 242 kts 294°
2026-05-05 20:51 54.39298 18.40056 3032 ft 228 kts 291°
2026-05-05 20:51 54.39874 18.37435 3839 ft 241 kts 291°
2026-05-05 20:51 54.40271 18.34623 4488 ft 241 kts 272°
2026-05-05 20:51 54.39999 18.31850 5082 ft 236 kts 248°
2026-05-05 20:52 54.39090 18.29551 5647 ft 233 kts 223°
2026-05-05 20:52 54.37699 18.28118 6218 ft 238 kts 199°
2026-05-05 20:52 54.36023 18.27680 6203 ft 252 kts 178°
2026-05-05 20:52 54.34305 18.28399 5941 ft 256 kts 155°
2026-05-05 20:53 54.32886 18.30208 5678 ft 255 kts 131°
2026-05-05 20:53 54.31955 18.32778 5423 ft 254 kts 115°
2026-05-05 20:53 54.31215 18.35543 5051 ft 257 kts 114°
2026-05-05 20:53 54.30477 18.38354 4643 ft 262 kts 113°
2026-05-05 20:54 54.29714 18.41240 4123 ft 269 kts 113°
2026-05-05 20:54 54.28941 18.44145 3721 ft 272 kts 113°
2026-05-05 20:54 54.28141 18.47137 3333 ft 273 kts 113°
2026-05-05 20:54 54.27369 18.50009 3027 ft 263 kts 113°
2026-05-05 20:55 54.26628 18.52742 2984 ft 244 kts 113°
2026-05-05 20:55 54.25937 18.55266 2978 ft 226 kts 114°
2026-05-05 20:55 54.25276 18.57665 2991 ft 221 kts 113°
2026-05-05 20:55 54.24652 18.60075 2988 ft 219 kts 110°
2026-05-05 20:56 54.24111 18.62404 3008 ft 204 kts 109°
2026-05-05 20:56 54.23613 18.64588 2983 ft 189 kts 105°
2026-05-05 20:56 54.23341 18.66719 3011 ft 182 kts 96°
2026-05-05 20:56 54.23639 18.68695 2997 ft 173 kts 46°
2026-05-05 20:57 54.24695 18.69650 3028 ft 175 kts 21°
2026-05-05 20:57 54.25836 18.70391 3001 ft 175 kts 23°
2026-05-05 20:57 54.26965 18.71171 2949 ft 175 kts 24°
2026-05-05 20:57 54.28091 18.71960 2871 ft 174 kts 24°
2026-05-05 20:58 54.29213 18.72747 2755 ft 174 kts 21°
2026-05-05 20:58 54.30433 18.72830 2705 ft 181 kts 345°
2026-05-05 20:58 54.31426 18.71630 2681 ft 175 kts 307°
2026-05-05 20:58 54.31956 18.69857 2687 ft 165 kts 297°
2026-05-05 20:59 54.32427 18.68076 2682 ft 160 kts 296°
2026-05-05 20:59 54.32865 18.66335 2590 ft 166 kts 296°
2026-05-05 20:59 54.33314 18.64535 2391 ft 162 kts 296°
2026-05-05 20:59 54.33753 18.62767 2160 ft 159 kts 296°
2026-05-05 21:00 54.34185 18.61036 1956 ft 158 kts 296°
2026-05-05 21:00 54.34621 18.59287 1749 ft 160 kts 297°
2026-05-05 21:00 54.35059 18.57507 1563 ft 164 kts 296°
2026-05-05 21:00 54.35463 18.55711 1360 ft 157 kts 295°
2026-05-05 21:01 54.35873 18.54015 1130 ft 152 kts 296°
2026-05-05 21:01 54.36302 18.52372 896 ft 150 kts 296°
2026-05-05 21:01 54.36723 18.50735 720 ft 149 kts 295°
2026-05-05 21:01 54.37136 18.49106 542 ft 148 kts 293°
2026-05-05 21:02 54.37517 18.47572 465 ft 127 kts 293°
2026-05-05 21:02 54.37820 18.46360 455 ft 93 kts 293°
2026-05-05 21:02 54.37979 18.45720 453 ft 22 kts 292°
2026-05-05 21:02 54.38075 18.45610 454 ft 19 kts 19°
2026-05-05 21:03 54.38152 18.45743 452 ft 15 kts 96°
2026-05-05 21:03 54.38118 18.45891 454 ft 12 kts 112°
2026-05-05 21:03 54.38095 18.46013 459 ft 10 kts 85°
2026-05-05 21:03 54.38142 18.46087 459 ft 10 kts 22°
2026-05-05 21:04 54.38179 18.46163 459 ft 9 kts 104°
2026-05-05 21:04 54.38154 18.46266 459 ft 9 kts 114°
2026-05-05 21:04 54.38130 18.46361 459 ft 6 kts 113°
2026-05-05 21:04 54.38114 18.46423 458 ft 4 kts 113°
2026-05-05 21:05 54.38108 18.46468 457 ft 4 kts 75°
2026-05-05 21:05 54.38131 18.46492 459 ft 4 kts 25°
2026-05-05 21:05 54.38147 18.46504 459 ft 0 kts 23°